date,City,No. Stations,Air Quality,Index Value,Prominent Pollutant
2021-09-23,Bilaspur,1.0,Satisfactory,92,CO
2021-09-24,Bilaspur,1.0,Good,35,PM10
2021-09-25,Bilaspur,1.0,Satisfactory,53,PM10
2021-09-26,Bilaspur,1.0,Satisfactory,60,PM10
2021-09-27,Bilaspur,1.0,Good,47,PM10
2021-09-28,Bilaspur,1.0,Satisfactory,63,PM10
2021-09-29,Bilaspur,1.0,Satisfactory,62,PM10
2021-09-30,Bilaspur,1.0,Good,47,PM10
2021-10-01,Bilaspur,1.0,Satisfactory,63,PM10
2021-10-02,Bilaspur,1.0,Satisfactory,67,PM10
2021-10-04,Bilaspur,1.0,Satisfactory,58,PM10
2021-10-05,Bilaspur,1.0,Good,50,PM10
2021-10-06,Bilaspur,1.0,Satisfactory,78,CO
2021-10-07,Bilaspur,1.0,Satisfactory,88,PM10
2021-10-08,Bilaspur,1.0,Satisfactory,83,PM10
2021-10-09,Bilaspur,1.0,Satisfactory,75,PM10
2021-10-10,Bilaspur,1.0,Satisfactory,89,PM10
2021-10-11,Bilaspur,1.0,Satisfactory,89,PM10
2021-10-12,Bilaspur,1.0,Satisfactory,93,PM10
2021-10-13,Bilaspur,1.0,Satisfactory,82,PM10
2021-10-14,Bilaspur,1.0,Satisfactory,86,PM10
2021-10-15,Bilaspur,1.0,Satisfactory,96,PM10
2021-10-16,Bilaspur,1.0,Satisfactory,52,CO
2021-10-17,Bilaspur,1.0,Satisfactory,60,CO
2021-10-18,Bilaspur,1.0,Good,46,PM10
2021-10-19,Bilaspur,1.0,Satisfactory,74,CO
2021-10-20,Bilaspur,1.0,Satisfactory,65,PM10
2021-10-21,Bilaspur,1.0,Satisfactory,79,PM10
2021-10-22,Bilaspur,1.0,Satisfactory,95,PM10
2021-10-23,Bilaspur,1.0,Moderate,102,PM10
2021-10-24,Bilaspur,1.0,Moderate,111,PM10
2021-10-25,Bilaspur,1.0,Moderate,106,PM10
2021-10-26,Bilaspur,1.0,Moderate,103,PM10
2021-10-27,Bilaspur,1.0,Satisfactory,87,PM10
2021-10-28,Bilaspur,1.0,Satisfactory,86,PM10
2021-10-29,Bilaspur,1.0,Satisfactory,86,PM10
2021-10-30,Bilaspur,1.0,Satisfactory,97,PM10
2021-11-01,Bilaspur,1.0,Satisfactory,93,PM10
2021-11-02,Bilaspur,1.0,Satisfactory,91,PM10
2021-11-03,Bilaspur,1.0,Moderate,103,PM10
2021-11-04,Bilaspur,1.0,Moderate,111,PM10
2021-11-05,Bilaspur,1.0,Moderate,115,PM10
2021-11-06,Bilaspur,1.0,Satisfactory,74,PM10
2021-11-07,Bilaspur,1.0,Satisfactory,64,PM10
2021-11-08,Bilaspur,1.0,Satisfactory,76,CO
2021-11-09,Bilaspur,1.0,Satisfactory,65,PM10
2021-11-10,Bilaspur,1.0,Satisfactory,68,PM10
2021-11-11,Bilaspur,1.0,Satisfactory,62,PM10
2021-11-12,Bilaspur,1.0,Satisfactory,67,PM10
2021-11-13,Bilaspur,1.0,Satisfactory,51,PM10
2021-11-14,Bilaspur,1.0,Good,45,PM10
2021-11-15,Bilaspur,1.0,Satisfactory,66,CO
2021-11-16,Bilaspur,1.0,Satisfactory,67,PM10
2021-11-17,Bilaspur,1.0,Satisfactory,68,PM10
2021-11-18,Bilaspur,1.0,Moderate,115,PM10
2021-11-19,Bilaspur,1.0,Satisfactory,70,PM10
2021-11-20,Bilaspur,1.0,Satisfactory,79,CO
2021-11-21,Bilaspur,1.0,Satisfactory,74,CO
2021-11-22,Bilaspur,1.0,Good,50,PM10
2021-11-23,Bilaspur,1.0,Satisfactory,68,CO
2021-11-24,Bilaspur,1.0,Satisfactory,89,PM10
2021-11-25,Bilaspur,1.0,Satisfactory,100,PM10
2021-11-26,Bilaspur,1.0,Satisfactory,92,PM10
2021-11-27,Bilaspur,1.0,Moderate,103,PM10
2021-11-28,Bilaspur,1.0,Satisfactory,84,PM10
2021-11-30,Bilaspur,1.0,Satisfactory,93,PM10
2021-12-01,Bilaspur,1.0,Moderate,103,PM10
2021-12-02,Bilaspur,1.0,Satisfactory,99,PM10
2021-12-03,Bilaspur,1.0,Moderate,104,PM10
2021-12-04,Bilaspur,1.0,Satisfactory,99,PM10
2021-12-05,Bilaspur,1.0,Satisfactory,88,PM10
2021-12-06,Bilaspur,1.0,Satisfactory,71,PM10
2021-12-07,Bilaspur,1.0,Satisfactory,99,PM10
2021-12-08,Bilaspur,1.0,Satisfactory,99,PM10
2021-12-09,Bilaspur,1.0,Satisfactory,97,PM10
2021-12-10,Bilaspur,1.0,Satisfactory,78,PM10
2021-12-11,Bilaspur,1.0,Moderate,102,PM10
2021-12-12,Bilaspur,1.0,Satisfactory,87,PM10
2021-12-13,Bilaspur,1.0,Satisfactory,90,PM10
2021-12-14,Bilaspur,1.0,Satisfactory,98,PM10
2021-12-15,Bilaspur,1.0,Satisfactory,92,PM10
2021-12-16,Bilaspur,1.0,Satisfactory,92,PM10
2021-12-17,Bilaspur,1.0,Moderate,103,PM10
2021-12-18,Bilaspur,1.0,Moderate,117,PM10
2021-12-19,Bilaspur,1.0,Satisfactory,77,PM10
2021-12-20,Bilaspur,1.0,Satisfactory,72,PM10
2021-12-21,Bilaspur,1.0,Moderate,108,PM10
2021-12-22,Bilaspur,1.0,Satisfactory,86,PM10
2021-12-23,Bilaspur,1.0,Satisfactory,92,PM10
2021-12-24,Bilaspur,1.0,Moderate,110,PM10
2021-12-25,Bilaspur,1.0,Moderate,117,PM10
2021-12-26,Bilaspur,1.0,Moderate,106,PM10
2021-12-27,Bilaspur,1.0,Moderate,123,PM10
2021-12-28,Bilaspur,1.0,Moderate,127,PM10
2021-12-30,Bilaspur,1.0,Satisfactory,55,PM10
2021-12-31,Bilaspur,1.0,Satisfactory,66,PM10
2022-01-01,Bilaspur,1.0,Satisfactory,60,PM10
2022-01-02,Bilaspur,1.0,Satisfactory,73,PM10
2022-01-03,Bilaspur,1.0,Satisfactory,58,PM10
2022-01-04,Bilaspur,1.0,Satisfactory,91,PM10
2022-01-05,Bilaspur,1.0,Moderate,105,PM10
2022-01-06,Bilaspur,1.0,Moderate,120,PM10
2022-01-07,Bilaspur,1.0,Moderate,101,PM10
2022-01-08,Bilaspur,1.0,Moderate,103,PM10
2022-01-09,Bilaspur,1.0,Satisfactory,97,PM10
2022-01-10,Bilaspur,1.0,Satisfactory,57,PM10
2022-01-11,Bilaspur,1.0,Satisfactory,65,PM10
2022-01-18,Bilaspur,1.0,Good,36,PM2.5
2022-01-19,Bilaspur,1.0,Good,32,PM10
2022-01-21,Bilaspur,1.0,Good,44,PM10
2022-01-22,Bilaspur,1.0,Good,40,PM10
2022-01-23,Bilaspur,1.0,Satisfactory,64,CO
2022-01-24,Bilaspur,1.0,Satisfactory,51,PM10
2022-01-25,Bilaspur,1.0,Satisfactory,52,PM10
2022-01-26,Bilaspur,1.0,Satisfactory,57,PM10
2022-01-27,Bilaspur,1.0,Satisfactory,59,PM10
2022-01-28,Bilaspur,1.0,Good,48,PM10
2022-01-29,Bilaspur,1.0,Good,45,PM10
2022-01-30,Bilaspur,1.0,Satisfactory,62,PM10
2022-01-31,Bilaspur,1.0,Satisfactory,60,PM10
2022-02-02,Bilaspur,1.0,Satisfactory,53,PM10
2022-02-03,Bilaspur,1.0,Good,47,PM10
2022-02-04,Bilaspur,1.0,Satisfactory,56,PM10
2022-02-05,Bilaspur,1.0,Satisfactory,61,PM10
2022-02-06,Bilaspur,1.0,Satisfactory,57,CO
2022-02-07,Bilaspur,1.0,Satisfactory,52,PM10
2022-02-08,Bilaspur,1.0,Satisfactory,64,CO
2022-02-09,Bilaspur,1.0,Satisfactory,59,PM10
2022-02-10,Bilaspur,1.0,Good,40,PM10
2022-02-11,Bilaspur,1.0,Good,49,PM10
2022-02-12,Bilaspur,1.0,Satisfactory,52,PM10
2022-02-15,Bilaspur,1.0,Satisfactory,55,PM10
2022-02-16,Bilaspur,1.0,Good,48,PM10
2022-02-17,Bilaspur,1.0,Good,47,PM10
2022-02-18,Bilaspur,1.0,Good,49,PM10
2022-02-19,Bilaspur,1.0,Satisfactory,58,PM10
2022-02-20,Bilaspur,1.0,Satisfactory,63,CO
2022-02-21,Bilaspur,1.0,Satisfactory,56,PM10
2022-02-22,Bilaspur,1.0,Good,50,PM10
2022-02-23,Bilaspur,1.0,Satisfactory,93,CO
2022-02-24,Bilaspur,1.0,Satisfactory,52,PM10
2022-02-25,Bilaspur,1.0,Satisfactory,56,CO
2022-02-26,Bilaspur,1.0,Satisfactory,55,PM10
2022-02-27,Bilaspur,1.0,Good,50,PM10
2022-02-28,Bilaspur,1.0,Satisfactory,60,PM10
2022-03-01,Bilaspur,1.0,Satisfactory,51,PM10
2022-03-02,Bilaspur,1.0,Satisfactory,52,PM10
2022-03-03,Bilaspur,1.0,Satisfactory,59,PM10
2022-03-04,Bilaspur,1.0,Satisfactory,58,PM10
2022-03-05,Bilaspur,1.0,Satisfactory,56,PM10
2022-03-06,Bilaspur,1.0,Satisfactory,61,CO
2022-03-07,Bilaspur,1.0,Satisfactory,56,PM10
2022-03-08,Bilaspur,1.0,Satisfactory,51,PM10
2022-03-09,Bilaspur,1.0,Satisfactory,66,CO
2022-03-10,Bilaspur,1.0,Satisfactory,68,CO
2022-03-11,Bilaspur,1.0,Satisfactory,53,PM10
2022-03-12,Bilaspur,1.0,Satisfactory,64,CO
2022-03-13,Bilaspur,1.0,Satisfactory,51,PM10
2022-03-14,Bilaspur,1.0,Satisfactory,55,PM10
2022-03-15,Bilaspur,1.0,Satisfactory,68,CO
2022-03-16,Bilaspur,1.0,Satisfactory,52,PM10
2022-03-17,Bilaspur,1.0,Satisfactory,57,PM10
2022-03-18,Bilaspur,1.0,Satisfactory,52,PM10
2022-03-19,Bilaspur,1.0,Good,50,PM10
2022-03-20,Bilaspur,1.0,Satisfactory,61,PM10
2022-03-21,Bilaspur,1.0,Good,39,CO
2022-03-22,Bilaspur,1.0,Satisfactory,55,CO
2022-03-23,Bilaspur,1.0,Satisfactory,56,PM10
2022-03-24,Bilaspur,1.0,Satisfactory,55,PM10
2022-03-25,Bilaspur,1.0,Satisfactory,53,PM10
2022-03-26,Bilaspur,1.0,Satisfactory,56,CO
2022-03-27,Bilaspur,1.0,Satisfactory,54,PM10
2022-03-28,Bilaspur,1.0,Satisfactory,72,CO
2022-03-29,Bilaspur,1.0,Satisfactory,56,PM10
2022-03-30,Bilaspur,1.0,Satisfactory,84,CO
2022-03-31,Bilaspur,1.0,Satisfactory,56,PM10
2022-04-01,Bilaspur,1.0,Satisfactory,58,PM10
2022-04-02,Bilaspur,1.0,Satisfactory,58,PM10
2022-04-03,Bilaspur,1.0,Satisfactory,70,PM10
2022-04-04,Bilaspur,1.0,Satisfactory,58,PM10
2022-04-05,Bilaspur,1.0,Satisfactory,54,PM10
2022-04-06,Bilaspur,1.0,Moderate,126,CO
2022-04-07,Bilaspur,1.0,Satisfactory,55,CO
2022-04-08,Bilaspur,1.0,Satisfactory,55,PM10
2022-04-09,Bilaspur,1.0,Satisfactory,58,PM10
2022-04-10,Bilaspur,1.0,Satisfactory,59,CO
2022-04-11,Bilaspur,1.0,Satisfactory,57,CO
2022-04-13,Bilaspur,1.0,Satisfactory,56,PM10
2022-04-14,Bilaspur,1.0,Satisfactory,63,CO
2022-04-15,Bilaspur,1.0,Satisfactory,53,CO
2022-04-16,Bilaspur,1.0,Satisfactory,67,CO
2022-04-17,Bilaspur,1.0,Satisfactory,53,PM10
2022-04-18,Bilaspur,1.0,Satisfactory,52,PM10
2022-04-19,Bilaspur,1.0,Satisfactory,56,PM10
2022-04-20,Bilaspur,1.0,Satisfactory,61,PM10
2022-04-21,Bilaspur,1.0,Satisfactory,57,PM10
2022-04-22,Bilaspur,1.0,Satisfactory,58,PM10
2022-04-23,Bilaspur,1.0,Satisfactory,73,CO
2022-04-24,Bilaspur,1.0,Satisfactory,59,CO
2022-04-25,Bilaspur,1.0,Satisfactory,59,PM10
2022-04-26,Bilaspur,1.0,Good,50,PM10
2022-04-27,Bilaspur,1.0,Satisfactory,56,PM10
2022-04-28,Bilaspur,1.0,Satisfactory,59,PM10
2022-04-29,Bilaspur,1.0,Satisfactory,61,PM10
2022-04-30,Bilaspur,1.0,Satisfactory,57,PM10
2022-05-01,Bilaspur,1.0,Satisfactory,57,PM10
2022-05-02,Bilaspur,1.0,Good,42,PM2.5
2022-05-03,Bilaspur,1.0,Good,42,PM2.5
2022-05-04,Bilaspur,1.0,Good,50,CO
2022-05-05,Bilaspur,1.0,Satisfactory,51,CO
2022-05-06,Bilaspur,1.0,Satisfactory,58,PM10
2022-05-07,Bilaspur,1.0,Satisfactory,51,PM10
2022-05-08,Bilaspur,1.0,Satisfactory,58,PM10
2022-05-09,Bilaspur,1.0,Satisfactory,59,PM10
2022-05-10,Bilaspur,1.0,Satisfactory,53,PM10
2022-05-11,Bilaspur,1.0,Satisfactory,55,PM10
2022-05-12,Bilaspur,1.0,Satisfactory,59,PM10
2022-05-13,Bilaspur,1.0,Satisfactory,67,CO
2022-05-15,Bilaspur,1.0,Satisfactory,60,PM10
2022-05-24,Bilaspur,1.0,Satisfactory,68,PM10
2022-05-25,Bilaspur,1.0,Satisfactory,64,PM10
2022-05-26,Bilaspur,1.0,Satisfactory,57,PM10
2022-05-27,Bilaspur,1.0,Satisfactory,58,PM10
2022-05-28,Bilaspur,1.0,Satisfactory,65,PM10
2022-05-29,Bilaspur,1.0,Satisfactory,55,PM10
2022-05-30,Bilaspur,1.0,Satisfactory,58,PM10
2022-05-31,Bilaspur,1.0,Satisfactory,62,PM10
2022-06-01,Bilaspur,1.0,Satisfactory,59,PM10
2022-06-02,Bilaspur,1.0,Satisfactory,57,PM10
2022-06-03,Bilaspur,1.0,Satisfactory,58,PM10
2022-06-04,Bilaspur,1.0,Satisfactory,68,PM10
2022-06-05,Bilaspur,1.0,Satisfactory,59,PM10
2022-06-06,Bilaspur,1.0,Satisfactory,61,PM10
2022-06-07,Bilaspur,1.0,Satisfactory,59,PM10
2022-06-08,Bilaspur,1.0,Satisfactory,53,PM10
2022-06-09,Bilaspur,1.0,Satisfactory,58,PM10
2022-06-10,Bilaspur,1.0,Satisfactory,61,PM10
2022-06-11,Bilaspur,1.0,Satisfactory,63,CO
2022-06-15,Bilaspur,1.0,Satisfactory,54,PM10
2022-06-16,Bilaspur,1.0,Satisfactory,62,PM10
2022-06-18,Bilaspur,1.0,Satisfactory,62,PM10
2022-06-21,Bilaspur,1.0,Satisfactory,55,CO
2022-06-22,Bilaspur,1.0,Satisfactory,62,PM10
2022-06-23,Bilaspur,1.0,Satisfactory,81,CO
2022-06-24,Bilaspur,1.0,Satisfactory,64,PM10
2022-06-25,Bilaspur,1.0,Satisfactory,58,PM10
2022-06-27,Bilaspur,1.0,Satisfactory,69,CO
2022-06-28,Bilaspur,1.0,Satisfactory,60,PM10
2022-06-29,Bilaspur,1.0,Satisfactory,61,PM10
2022-06-30,Bilaspur,1.0,Satisfactory,56,PM10
2022-07-03,Bilaspur,1.0,Good,49,PM2.5
2022-07-04,Bilaspur,1.0,Moderate,102,CO
2022-07-05,Bilaspur,1.0,Satisfactory,51,PM10
2022-07-06,Bilaspur,1.0,Satisfactory,82,CO
2022-07-07,Bilaspur,1.0,Satisfactory,67,PM10
2022-07-08,Bilaspur,1.0,Satisfactory,62,PM10
2022-07-09,Bilaspur,1.0,Satisfactory,67,PM10
2022-07-10,Bilaspur,1.0,Satisfactory,63,PM10
2022-07-11,Bilaspur,1.0,Satisfactory,70,CO
2022-07-12,Bilaspur,1.0,Satisfactory,61,PM10
2022-07-13,Bilaspur,1.0,Satisfactory,64,CO
2022-07-14,Bilaspur,1.0,Satisfactory,61,PM10
2022-07-15,Bilaspur,1.0,Satisfactory,68,PM10
2022-07-16,Bilaspur,1.0,Satisfactory,61,CO
2022-07-17,Bilaspur,1.0,Satisfactory,84,CO
2022-07-18,Bilaspur,1.0,Satisfactory,78,CO
2022-07-19,Bilaspur,1.0,Satisfactory,79,CO
2022-07-20,Bilaspur,1.0,Satisfactory,60,PM10
2022-07-21,Bilaspur,1.0,Satisfactory,56,PM10
2022-07-22,Bilaspur,1.0,Moderate,119,CO
2022-07-23,Bilaspur,1.0,Satisfactory,61,PM10
2022-07-24,Bilaspur,1.0,Satisfactory,60,PM10
2022-07-25,Bilaspur,1.0,Moderate,101,CO
2022-07-26,Bilaspur,1.0,Satisfactory,70,CO
2022-07-27,Bilaspur,1.0,Satisfactory,58,PM10
2022-07-28,Bilaspur,1.0,Satisfactory,60,CO
2022-07-29,Bilaspur,1.0,Moderate,113,CO
2022-07-30,Bilaspur,1.0,Satisfactory,62,PM10
2022-07-31,Bilaspur,1.0,Satisfactory,63,PM10
2022-08-01,Bilaspur,1.0,Satisfactory,75,CO
2022-08-02,Bilaspur,1.0,Satisfactory,80,CO
2022-08-03,Bilaspur,1.0,Satisfactory,59,PM10
2022-08-04,Bilaspur,1.0,Satisfactory,77,CO
2022-08-05,Bilaspur,1.0,Satisfactory,60,PM10
2022-08-06,Bilaspur,1.0,Satisfactory,60,CO
2022-08-08,Bilaspur,1.0,Good,50,PM10
2022-08-09,Bilaspur,1.0,Satisfactory,67,PM10
2022-08-10,Bilaspur,1.0,Satisfactory,75,CO
2022-08-12,Bilaspur,1.0,Satisfactory,55,PM10
2022-08-13,Bilaspur,1.0,Satisfactory,70,CO
2022-08-14,Bilaspur,1.0,Satisfactory,95,CO
2022-08-17,Bilaspur,1.0,Satisfactory,62,CO
2022-08-18,Bilaspur,1.0,Satisfactory,59,CO
2022-08-19,Bilaspur,1.0,Satisfactory,64,PM10
2022-08-20,Bilaspur,1.0,Satisfactory,60,CO
2022-08-24,Bilaspur,1.0,Satisfactory,63,CO
2022-08-25,Bilaspur,1.0,Satisfactory,56,PM10
2022-08-26,Bilaspur,1.0,Satisfactory,59,PM10
2022-08-27,Bilaspur,1.0,Satisfactory,68,PM10
2022-08-28,Bilaspur,1.0,Satisfactory,68,CO
2022-08-29,Bilaspur,1.0,Satisfactory,55,CO
2022-08-30,Bilaspur,1.0,Satisfactory,61,PM10
2022-08-31,Bilaspur,1.0,Satisfactory,64,CO
2022-09-01,Bilaspur,1.0,Satisfactory,67,PM10
2022-09-02,Bilaspur,1.0,Satisfactory,61,PM10
2022-09-03,Bilaspur,1.0,Satisfactory,62,PM10
2022-09-04,Bilaspur,1.0,Satisfactory,75,CO
2022-09-05,Bilaspur,1.0,Satisfactory,60,PM10
2022-09-06,Bilaspur,1.0,Satisfactory,67,PM10
2022-09-07,Bilaspur,1.0,Satisfactory,55,PM10
2022-09-08,Bilaspur,1.0,Satisfactory,56,PM10
2022-09-09,Bilaspur,1.0,Satisfactory,54,PM10
2022-09-10,Bilaspur,1.0,Satisfactory,63,CO
2022-09-11,Bilaspur,1.0,Satisfactory,56,PM10
2022-09-12,Bilaspur,1.0,Satisfactory,55,PM10
2022-09-13,Bilaspur,1.0,Satisfactory,57,PM10
2022-09-14,Bilaspur,1.0,Satisfactory,71,CO
2022-09-15,Bilaspur,1.0,Satisfactory,60,PM10
2022-09-16,Bilaspur,1.0,Satisfactory,61,CO
2022-09-17,Bilaspur,1.0,Satisfactory,57,CO
2022-09-18,Bilaspur,1.0,Satisfactory,52,PM10
2022-09-19,Bilaspur,1.0,Satisfactory,52,CO
2022-09-20,Bilaspur,1.0,Satisfactory,53,PM10
2022-09-21,Bilaspur,1.0,Satisfactory,57,PM10
2022-09-22,Bilaspur,1.0,Satisfactory,68,CO
2022-09-23,Bilaspur,1.0,Satisfactory,58,CO
2022-09-24,Bilaspur,1.0,Satisfactory,51,PM10
2022-09-25,Bilaspur,1.0,Satisfactory,70,CO
2022-09-26,Bilaspur,1.0,Satisfactory,60,CO
2022-09-27,Bilaspur,1.0,Satisfactory,57,PM10
2022-09-28,Bilaspur,1.0,Satisfactory,52,PM10
2022-09-29,Bilaspur,1.0,Satisfactory,61,PM10
2022-09-30,Bilaspur,1.0,Satisfactory,53,CO
2022-10-01,Bilaspur,1.0,Satisfactory,58,PM10
2022-10-02,Bilaspur,1.0,Good,49,PM10
2022-10-03,Bilaspur,1.0,Satisfactory,66,CO
2022-10-04,Bilaspur,1.0,Satisfactory,52,PM10
2022-10-05,Bilaspur,1.0,Satisfactory,62,CO
2022-10-06,Bilaspur,1.0,Satisfactory,51,PM10
2022-10-07,Bilaspur,1.0,Satisfactory,56,PM10
2022-10-08,Bilaspur,1.0,Satisfactory,54,CO
2022-10-09,Bilaspur,1.0,Satisfactory,77,CO
2022-10-10,Bilaspur,1.0,Satisfactory,51,PM10
2022-10-11,Bilaspur,1.0,Satisfactory,54,PM10
2022-10-12,Bilaspur,1.0,Satisfactory,54,PM10
2022-10-13,Bilaspur,1.0,Satisfactory,51,PM10
2022-10-14,Bilaspur,1.0,Satisfactory,53,PM10
2022-10-15,Bilaspur,1.0,Satisfactory,56,CO
2022-10-16,Bilaspur,1.0,Satisfactory,99,CO
2022-10-17,Bilaspur,1.0,Satisfactory,56,PM10
2022-10-18,Bilaspur,1.0,Satisfactory,56,PM10
2022-10-19,Bilaspur,1.0,Satisfactory,55,PM10
2022-10-20,Bilaspur,1.0,Satisfactory,62,PM10
2022-10-21,Bilaspur,1.0,Satisfactory,55,PM10
2022-10-22,Bilaspur,1.0,Satisfactory,60,CO
2022-10-23,Bilaspur,1.0,Satisfactory,81,PM10
2022-10-24,Bilaspur,1.0,Satisfactory,81,PM2.5
2022-10-25,Bilaspur,1.0,Satisfactory,82,PM2.5
2022-10-26,Bilaspur,1.0,Satisfactory,81,PM2.5
2022-10-27,Bilaspur,1.0,Satisfactory,77,PM10
2022-10-28,Bilaspur,1.0,Satisfactory,64,PM10
2022-10-30,Bilaspur,1.0,Satisfactory,61,PM10
2022-10-31,Bilaspur,1.0,Satisfactory,56,PM10
2022-11-01,Bilaspur,1.0,Satisfactory,79,CO
2022-11-02,Bilaspur,1.0,Satisfactory,56,PM10
2022-11-03,Bilaspur,1.0,Satisfactory,67,CO
2022-11-04,Bilaspur,1.0,Satisfactory,57,PM10
2022-11-05,Bilaspur,1.0,Satisfactory,68,PM10
2022-11-06,Bilaspur,1.0,Satisfactory,63,CO
2022-11-07,Bilaspur,1.0,Satisfactory,56,PM10
2022-11-08,Bilaspur,1.0,Satisfactory,58,PM10
2022-11-09,Bilaspur,1.0,Satisfactory,67,CO
2022-11-10,Bilaspur,1.0,Satisfactory,51,PM10
2022-11-11,Bilaspur,1.0,Satisfactory,60,PM10
2022-11-12,Bilaspur,1.0,Satisfactory,62,CO
2022-11-13,Bilaspur,1.0,Satisfactory,59,PM10
2022-11-14,Bilaspur,1.0,Satisfactory,65,CO
2022-11-15,Bilaspur,1.0,Moderate,138,PM10
2022-11-16,Bilaspur,1.0,Satisfactory,57,PM10
2022-11-17,Bilaspur,1.0,Satisfactory,59,PM10
2022-11-18,Bilaspur,1.0,Satisfactory,63,PM10
2022-11-19,Bilaspur,1.0,Satisfactory,62,PM2.5
2022-11-20,Bilaspur,1.0,Satisfactory,100,PM10
2022-11-21,Bilaspur,1.0,Satisfactory,71,PM10
2022-11-22,Bilaspur,1.0,Satisfactory,73,PM10
2022-11-23,Bilaspur,1.0,Satisfactory,69,PM10
2022-11-24,Bilaspur,1.0,Satisfactory,78,PM10
2022-11-25,Bilaspur,1.0,Satisfactory,82,PM10
2022-11-26,Bilaspur,1.0,Satisfactory,90,PM10
2022-11-27,Bilaspur,1.0,Satisfactory,100,PM10
2022-11-28,Bilaspur,1.0,Satisfactory,91,PM10
2022-11-29,Bilaspur,1.0,Moderate,104,PM10
2022-11-30,Bilaspur,1.0,Satisfactory,84,PM10
2022-12-01,Bilaspur,1.0,Satisfactory,90,PM10
2022-12-02,Bilaspur,1.0,Moderate,109,PM10
2022-12-03,Bilaspur,1.0,Satisfactory,91,PM10
2022-12-04,Bilaspur,1.0,Moderate,109,PM10
2022-12-05,Bilaspur,1.0,Moderate,122,PM10
2022-12-06,Bilaspur,1.0,Satisfactory,91,PM10
2022-12-07,Bilaspur,1.0,Satisfactory,82,PM10
2022-12-08,Bilaspur,1.0,Satisfactory,69,PM10
2022-12-09,Bilaspur,1.0,Satisfactory,86,CO
2022-12-10,Bilaspur,1.0,Satisfactory,86,PM10
2022-12-11,Bilaspur,1.0,Moderate,104,PM10
2022-12-12,Bilaspur,1.0,Satisfactory,98,PM10
2022-12-13,Bilaspur,1.0,Satisfactory,87,PM10
2022-12-14,Bilaspur,1.0,Satisfactory,72,PM10
2022-12-15,Bilaspur,1.0,Satisfactory,92,CO
2022-12-16,Bilaspur,1.0,Satisfactory,88,CO
2022-12-17,Bilaspur,1.0,Satisfactory,66,CO
2022-12-18,Bilaspur,1.0,Satisfactory,81,CO
2022-12-19,Bilaspur,1.0,Satisfactory,70,CO
2022-12-20,Bilaspur,1.0,Moderate,125,PM10
2022-12-21,Bilaspur,1.0,Satisfactory,92,PM10
2022-12-22,Bilaspur,1.0,Satisfactory,69,PM10
2022-12-23,Bilaspur,1.0,Moderate,110,PM10
2022-12-24,Bilaspur,1.0,Satisfactory,99,PM10
2022-12-25,Bilaspur,1.0,Moderate,104,CO
2022-12-26,Bilaspur,1.0,Satisfactory,69,CO
2022-12-27,Bilaspur,1.0,Good,46,PM10
2022-12-28,Bilaspur,1.0,Satisfactory,57,PM10
2022-12-29,Bilaspur,1.0,Satisfactory,68,CO
2022-12-30,Bilaspur,1.0,Satisfactory,61,PM10
2022-12-31,Bilaspur,1.0,Satisfactory,97,PM10
2023-02-02,Bilaspur,1.0,Satisfactory,88,CO
2023-02-04,Bilaspur,1.0,Satisfactory,86,PM10
2023-02-05,Bilaspur,1.0,Moderate,133,PM10
2023-02-06,Bilaspur,1.0,Moderate,116,PM10
2023-02-07,Bilaspur,1.0,Satisfactory,80,CO
2023-02-08,Bilaspur,1.0,Moderate,104,CO
2023-02-09,Bilaspur,1.0,Good,49,PM10
2023-02-10,Bilaspur,1.0,Satisfactory,57,CO
2023-02-11,Bilaspur,1.0,Satisfactory,58,PM10
2023-02-12,Bilaspur,1.0,Satisfactory,52,PM10
2023-02-13,Bilaspur,1.0,Satisfactory,77,CO
2023-02-14,Bilaspur,1.0,Good,47,NO2
2023-02-15,Bilaspur,1.0,Satisfactory,53,CO
2023-02-16,Bilaspur,1.0,Satisfactory,91,PM10
2023-02-17,Bilaspur,1.0,Satisfactory,55,PM10
2023-02-18,Bilaspur,1.0,Satisfactory,79,PM10
2023-02-19,Bilaspur,1.0,Satisfactory,86,CO
2023-02-20,Bilaspur,1.0,Satisfactory,56,CO
2023-02-21,Bilaspur,1.0,Satisfactory,66,CO
2023-02-22,Bilaspur,1.0,Satisfactory,53,PM10
2023-02-23,Bilaspur,1.0,Satisfactory,68,PM10
2023-02-24,Bilaspur,1.0,Satisfactory,61,CO
2023-02-25,Bilaspur,1.0,Satisfactory,75,CO
2023-02-26,Bilaspur,1.0,Satisfactory,68,CO
2023-02-27,Bilaspur,1.0,Satisfactory,91,CO
2023-02-28,Bilaspur,1.0,Satisfactory,87,CO
2023-03-01,Bilaspur,1.0,Moderate,108,CO
2023-03-02,Bilaspur,1.0,Satisfactory,76,CO
2023-03-03,Bilaspur,1.0,Moderate,136,PM2.5
2023-03-05,Bilaspur,1.0,Good,36,CO
2023-03-06,Bilaspur,1.0,Good,33,CO
2023-03-07,Bilaspur,1.0,Good,48,CO
2023-03-08,Bilaspur,1.0,Moderate,137,PM10
2023-03-09,Bilaspur,1.0,Poor,259,PM10
2023-03-10,Bilaspur,1.0,Satisfactory,76,PM10
2023-03-11,Bilaspur,1.0,Satisfactory,74,CO
2023-03-12,Bilaspur,1.0,Satisfactory,81,PM10
2023-03-13,Bilaspur,1.0,Satisfactory,77,PM10
2023-03-14,Bilaspur,1.0,Satisfactory,92,PM10
2023-03-15,Bilaspur,1.0,Moderate,114,PM10
2023-03-16,Bilaspur,1.0,Moderate,123,PM10
2023-03-17,Bilaspur,1.0,Satisfactory,83,PM10
2023-03-19,Bilaspur,1.0,Satisfactory,56,PM10
2023-03-20,Bilaspur,1.0,Good,50,PM10
2023-03-21,Bilaspur,1.0,Satisfactory,69,PM2.5
2023-03-22,Bilaspur,1.0,Satisfactory,70,CO
2023-03-23,Bilaspur,1.0,Moderate,154,CO
2023-03-24,Bilaspur,1.0,Satisfactory,98,PM10
2023-03-25,Bilaspur,1.0,Moderate,115,CO
2023-03-26,Bilaspur,1.0,Moderate,105,CO
2023-03-27,Bilaspur,1.0,Moderate,109,CO
2023-03-28,Bilaspur,1.0,Satisfactory,86,PM10
2023-03-29,Bilaspur,1.0,Satisfactory,92,PM10
2023-03-30,Bilaspur,1.0,Satisfactory,89,CO
2023-03-31,Bilaspur,1.0,Satisfactory,61,CO
2023-04-02,Bilaspur,1.0,Satisfactory,70,PM10
2023-04-03,Bilaspur,1.0,Satisfactory,82,PM10
2023-04-04,Bilaspur,1.0,Moderate,145,PM10
2023-04-05,Bilaspur,1.0,Satisfactory,74,PM10
2023-04-06,Bilaspur,1.0,Satisfactory,88,CO
2023-04-07,Bilaspur,1.0,Satisfactory,95,PM2.5
2023-04-08,Bilaspur,1.0,Satisfactory,54,PM10
2023-04-09,Bilaspur,1.0,Satisfactory,53,CO
2023-04-10,Bilaspur,1.0,Satisfactory,52,CO
2023-04-11,Bilaspur,1.0,Satisfactory,58,PM10
2023-04-12,Bilaspur,1.0,Satisfactory,57,PM10
2023-04-13,Bilaspur,1.0,Satisfactory,68,PM10
2023-04-14,Bilaspur,1.0,Satisfactory,82,PM10
2023-04-16,Bilaspur,1.0,Moderate,107,PM10
2023-04-17,Bilaspur,1.0,Moderate,135,PM10
2023-04-18,Bilaspur,1.0,Moderate,144,PM10
2023-04-19,Bilaspur,1.0,Moderate,137,PM10
2023-05-07,Bilaspur,1.0,Moderate,135,PM10
2023-05-08,Bilaspur,1.0,Satisfactory,95,PM10
2023-05-10,Bilaspur,1.0,Moderate,103,PM10
2023-05-11,Bilaspur,1.0,Satisfactory,90,PM10
2023-05-12,Bilaspur,1.0,Satisfactory,98,PM10
2023-05-13,Bilaspur,1.0,Satisfactory,70,PM10
2023-05-14,Bilaspur,1.0,Satisfactory,69,CO
2023-05-15,Bilaspur,1.0,Moderate,148,PM2.5
2023-05-16,Bilaspur,1.0,Satisfactory,66,PM10
2023-05-23,Bilaspur,1.0,Satisfactory,62,PM2.5
2023-05-24,Bilaspur,1.0,Satisfactory,62,CO
2023-05-25,Bilaspur,1.0,Satisfactory,70,CO
2023-05-26,Bilaspur,1.0,Satisfactory,74,CO
2023-05-27,Bilaspur,1.0,Satisfactory,65,CO
2023-05-28,Bilaspur,1.0,Satisfactory,55,PM10
2023-05-29,Bilaspur,1.0,Satisfactory,77,CO
2023-05-30,Bilaspur,1.0,Satisfactory,93,PM2.5
2023-05-31,Bilaspur,1.0,Satisfactory,78,PM2.5
2023-06-01,Bilaspur,1.0,Satisfactory,78,PM2.5
2023-06-02,Bilaspur,1.0,Moderate,103,CO
2023-06-04,Bilaspur,1.0,Satisfactory,75,CO
2023-06-05,Bilaspur,1.0,Satisfactory,68,PM10
2023-06-06,Bilaspur,1.0,Satisfactory,79,CO
2023-06-07,Bilaspur,1.0,Satisfactory,89,CO
2023-06-08,Bilaspur,1.0,Satisfactory,72,PM10
2023-06-09,Bilaspur,1.0,Satisfactory,71,PM10
2023-06-10,Bilaspur,1.0,Satisfactory,70,CO
2023-06-11,Bilaspur,1.0,Satisfactory,97,CO
2023-06-12,Bilaspur,1.0,Satisfactory,64,PM10
2023-06-13,Bilaspur,1.0,Satisfactory,62,CO
2023-06-14,Bilaspur,1.0,Satisfactory,62,CO
2023-06-15,Bilaspur,1.0,Satisfactory,99,CO
2023-06-16,Bilaspur,1.0,Satisfactory,91,CO
2023-06-18,Bilaspur,1.0,Satisfactory,76,PM2.5
2023-06-19,Bilaspur,1.0,Satisfactory,87,PM2.5
2023-06-22,Bilaspur,1.0,Satisfactory,78,CO
2023-06-23,Bilaspur,1.0,Satisfactory,56,CO
2023-06-24,Bilaspur,1.0,Satisfactory,71,PM10
2023-06-27,Bilaspur,1.0,Moderate,132,CO
2023-06-30,Bilaspur,1.0,Satisfactory,60,PM10
2023-07-01,Bilaspur,1.0,Satisfactory,88,CO
2023-07-02,Bilaspur,1.0,Moderate,112,CO
2023-07-03,Bilaspur,1.0,Satisfactory,55,PM10
2023-07-04,Bilaspur,1.0,Satisfactory,88,PM10
2023-07-05,Bilaspur,1.0,Satisfactory,94,CO
2023-07-11,Bilaspur,1.0,Satisfactory,93,PM10
2023-07-12,Bilaspur,1.0,Satisfactory,97,CO
2023-07-13,Bilaspur,1.0,Satisfactory,59,PM10
2023-07-14,Bilaspur,1.0,Satisfactory,88,PM10
2023-07-15,Bilaspur,1.0,Moderate,108,PM10
2023-07-16,Bilaspur,1.0,Satisfactory,85,CO
2023-07-17,Bilaspur,1.0,Moderate,151,CO
2023-07-18,Bilaspur,1.0,Satisfactory,94,CO